Theta_e
322 328 338 342 344 346 347 346 347 347 347 346 346 347 347 347 346 345 344 345 346 348 348 349 349 349 348 348 346 346 345 346 346 345 344 342 341 348 350 351 350 349 352
323 328 335 336 340 343 343 342 342 344 345 345 345 345 345 344 343 343 342 343 344 346 347 346 345 344 344 344 345 346 345 345 344 344 342 341 341 342 351 351 349 349 350
322 325 329 335 336 337 336 338 339 340 340 340 341 341 340 339 337 336 336 336 337 339 339 339 339 338 339 341 342 343 344 343 342 341 341 335 330 349 351 350 350 352 351
320 322 324 333 334 335 335 335 336 335 335 336 336 335 333 333 333 332 331 330 331 333 334 334 333 333 333 334 336 339 339 338 337 337 335 334 332 346 349 350 351 351 351
316 318 323 331 331 330 330 331 331 331 330 333 331 329 327 326 326 325 324 323 324 325 325 325 325 328 328 328 331 334 334 333 332 329 329 331 333 339 347 350 350 349 347
313 316 323 327 328 327 327 326 326 325 325 327 325 323 322 321 321 320 320 320 320 321 321 321 321 321 320 320 320 322 325 324 325 320 325 329 331 343 344 345 347 346 346
310 313 317 324 325 324 323 323 322 322 321 321 321 320 318 318 318 318 318 318 318 319 319 319 319 318 318 317 317 317 316 315 310 311 317 324 328 340 341 343 344 345 347
308 310 313 320 322 321 321 320 319 319 318 317 317 316 315 315 314 315 315 315 316 316 317 317 316 316 315 315 314 313 313 315 309 307 312 323 334 341 342 342 342 342 343
306 306 306 309 314 317 318 317 317 315 314 314 314 312 311 311 310 310 311 312 314 314 314 314 314 314 314 313 313 312 312 311 301 304 307 317 327 334 338 340 340 340 340
301 302 302 303 305 304 306 314 313 312 310 309 309 308 307 307 307 306 306 309 311 311 311 311 311 310 309 309 310 310 309 307 299 300 302 306 317 323 329 333 336 337 337
297 298 299 300 301 300 301 306 308 308 307 306 305 305 303 296 298 299 305 306 307 307 307 308 308 306 304 304 306 307 306 300 299 299 300 312 315 317 319 321 323 328 332
293 295 297 296 298 299 301 299 297 300 298 297 297 296 296 295 297 300 302 303 302 301 303 304 304 301 298 295 295 299 297 297 298 298 299 308 311 314 316 317 318 319 321
293 294 296 296 296 297 296 296 296 295 295 295 294 295 295 295 294 293 292 292 291 295 291 293 293 293 292 293 293 293 294 294 294 296 299 306 309 312 314 315 317 318 319
293 294 294 295 295 294 294 296 295 295 294 293 293 294 293 292 291 290 290 290 289 290 289 289 290 291 291 292 292 292 292 292 293 294 296 303 306 310 313 315 316 317 318
294 294 294 294 294 294 294 294 294 294 293 293 292 292 292 290 289 290 289 289 288 288 288 288 289 289 289 291 291 291 291 291 291 293 294 300 302 305 309 312 314 315 317
296 294 294 294 295 295 293 293 293 292 292 292 290 290 291 290 289 289 288 288 287 287 287 287 288 287 288 289 290 290 290 290 291 292 292 293 300 302 304 308 311 313 314
297 295 294 294 294 295 293 292 293 292 292 290 290 290 290 290 288 288 288 287 286 287 287 287 287 287 286 288 287 289 289 290 290 290 291 291 293 298 301 305 307 310 311
297 294 294 296 294 294 293 292 293 291 290 290 289 289 289 289 288 287 287 287 287 286 286 286 285 285 285 286 286 287 287 288 289 289 290 290 291 293 298 303 305 306 307
297 295 293 294 293 293 291 291 291 290 289 289 288 287 288 288 288 287 286 286 286 286 285 286 284 284 284 284 285 286 286 286 287 289 289 290 292 293 294 299 304 305 306
298 295 294 293 293 292 291 290 289 288 288 288 287 288 288 287 287 286 285 285 285 284 284 284 284 284 284 283 285 285 285 285 285 285 287 290 291 293 294 293 295 298 302
297 293 292 291 291 292 291 289 288 288 287 286 286 287 287 287 286 285 284 284 284 284 284 284 283 283 282 283 281 282 282 284 285 284 286 286 287 289 290 292 291 291 292
295 293 292 291 291 292 292 291 288 287 287 286 287 286 286 286 286 285 284 283 283 282 282 282 282 281 282 282 280 279 278 281 284 284 283 285 285 287 289 289 289 290 290
294 292 292 291 291 292 291 289 287 287 285 284 284 284 285 285 285 284 283 283 282 282 281 281 281 281 280 280 281 279 277 276 278 282 283 283 283 283 285 287 289 288 289
294 293 292 292 290 291 290 289 288 286 286 287 287 285 284 285 284 284 283 282 281 281 281 281 282 281 280 279 280 282 280 279 277 276 280 281 284 283 283 285 286 287 288
294 292 292 291 290 290 290 290 289 287 287 283 283 283 284 283 283 283 283 282 281 281 280 281 281 280 280 279 279 280 279 279 279 277 275 277 281 283 283 284 284 285 285
291 292 290 290 290 290 289 289 288 287 284 283 284 284 283 283 282 282 282 281 281 280 280 280 280 280 279 279 280 280 279 278 278 277 276 277 277 279 281 282 282 283 284
Wind_Speed
2 3 6 9 10 11 15 13 13 13 13 13 14 14 15 15 15 14 14 13 13 12 12 13 13 15 14 12 11 12 11 11 10 10 10 11 10 8 5 2 4 4 5
8 6 7 7 9 10 13 12 11 13 13 13 13 15 15 14 14 15 13 14 13 14 15 14 14 13 14 14 14 13 11 12 12 11 12 10 10 9 7 1 3 3 4
10 7 6 10 9 8 9 10 9 10 9 10 11 12 11 12 11 10 10 12 12 12 12 12 12 13 13 14 14 14 13 14 15 15 14 6 6 7 6 2 1 4 5
10 7 5 9 12 11 10 11 11 10 10 10 10 10 11 11 11 12 12 12 11 11 11 12 11 10 10 10 11 12 11 12 14 16 7 7 7 6 3 3 5 6 6
9 7 5 10 12 12 12 12 12 12 11 12 13 12 12 11 12 12 12 11 11 11 11 10 10 10 11 11 10 10 11 13 14 11 8 6 5 7 8 8 7 6 5
9 7 8 11 12 12 12 13 12 12 12 12 12 12 12 11 12 12 12 12 12 11 11 11 10 10 10 10 10 10 11 12 12 7 7 8 6 7 8 8 8 9 9
8 7 7 13 13 12 12 12 12 12 12 12 11 12 12 12 12 12 12 12 11 11 12 12 12 11 11 12 11 12 13 13 7 6 7 6 6 13 10 7 9 11 11
11 8 7 10 12 13 12 12 12 11 11 11 11 12 12 12 12 12 12 12 11 12 13 13 13 12 12 11 12 13 15 13 7 5 6 5 13 13 10 7 7 9 11
10 8 6 6 8 12 13 13 13 12 11 11 12 12 11 12 13 12 12 13 13 14 14 14 14 14 15 14 14 15 16 15 6 5 7 5 15 13 11 12 11 11 10
8 8 7 6 6 6 6 13 14 13 12 12 12 11 11 11 12 12 10 12 12 12 13 13 13 14 14 14 15 16 15 12 7 7 6 5 15 14 14 12 14 16 14
7 9 8 8 7 7 6 7 12 14 13 13 10 8 8 5 6 6 9 10 11 11 11 12 13 14 14 13 14 15 13 4 5 4 4 16 16 15 14 14 13 14 16
10 9 11 9 9 8 7 6 6 5 4 5 5 5 5 5 4 5 7 9 11 10 12 13 13 13 10 4 3 8 3 5 4 4 3 15 15 14 14 14 13 14 15
11 9 11 10 8 9 7 5 3 3 4 4 5 5 5 4 4 3 3 3 3 7 3 6 6 5 7 5 5 5 5 5 3 3 6 16 15 14 14 14 14 14 13
13 14 11 10 10 8 5 6 5 4 4 4 5 6 5 3 4 3 2 3 3 2 5 5 4 4 5 5 6 6 6 5 5 4 6 14 17 17 16 16 15 14 14
14 14 14 12 11 9 8 6 5 6 5 5 5 5 5 5 5 4 3 3 3 3 4 4 4 5 5 6 6 7 8 8 6 4 4 14 16 18 18 17 17 16 15
15 16 14 15 12 10 8 7 6 5 6 5 5 5 7 5 5 4 4 4 3 3 3 3 4 4 4 5 7 8 9 9 9 7 5 5 15 16 17 17 15 15 16
13 15 17 15 13 13 10 7 6 5 6 5 5 7 7 6 6 6 4 4 3 2 3 3 4 4 4 5 5 7 7 8 9 9 7 6 6 11 13 14 15 14 14
14 18 17 15 15 12 10 6 6 5 5 5 5 5 7 7 6 5 4 4 3 3 3 2 2 2 3 4 5 6 6 8 10 9 7 5 4 4 7 13 12 13 13
19 19 19 17 16 14 9 7 6 7 5 6 5 5 7 7 6 5 5 4 4 3 2 1 2 2 2 3 5 5 6 6 7 6 7 7 6 5 4 9 11 12 13
19 19 19 15 16 14 8 6 4 5 4 5 5 7 8 6 7 6 4 5 4 3 2 1 1 1 0 3 6 7 7 6 4 3 5 5 5 6 4 4 4 5 12
16 17 19 18 16 14 9 9 6 9 5 4 5 8 8 7 6 6 4 5 4 4 4 3 1 3 3 4 4 4 4 5 1 3 4 3 5 5 5 3 3 3 4
20 19 19 20 19 15 12 10 5 5 3 3 4 6 7 8 7 6 6 5 5 4 4 3 3 2 3 4 3 2 5 6 4 9 3 3 5 4 4 5 6 5 4
19 22 21 21 19 17 12 8 4 4 3 4 4 5 5 8 7 7 7 6 6 4 4 3 4 4 1 2 3 1 3 3 7 3 7 5 4 3 4 4 5 6 7
19 18 19 19 19 16 16 14 15 10 10 8 8 6 6 9 8 8 7 6 6 4 5 4 4 3 3 2 1 1 2 2 3 8 5 5 11 7 5 7 8 6 6
17 19 18 19 18 17 18 17 14 11 8 4 4 9 10 7 8 7 7 7 6 4 5 5 4 4 2 2 3 0 1 2 4 5 9 4 8 9 8 8 7 8 7
10 13 14 18 18 16 18 18 19 16 10 7 9 10 8 7 7 8 7 6 6 5 5 5 4 4 4 2 2 2 3 3 2 3 7 10 13 9 5 10 11 8 7
Wind_Direction
121 86 110 104 100 91 83 82 83 88 85 78 74 69 69 65 65 62 52 47 42 41 46 45 47 46 40 35 29 24 24 20 12 0 342 328 314 305 300 348 11 13 36
132 116 101 98 99 103 99 93 96 87 87 88 74 68 66 66 64 62 56 51 42 44 43 47 46 43 32 27 23 23 19 15 6 352 331 323 309 288 254 246 358 16 14
125 117 106 120 121 115 123 90 78 73 78 79 80 78 74 67 62 66 64 50 43 40 38 35 33 30 26 25 21 20 16 18 359 343 331 323 314 334 187 169 42 19 358
127 121 116 125 126 124 121 114 108 112 107 107 104 94 88 86 80 78 70 62 58 56 49 43 38 35 29 17 13 17 14 10 353 340 333 333 334 6 82 61 32 25 8
118 116 124 136 127 122 119 119 119 114 109 107 103 97 92 89 84 78 73 67 60 53 49 46 41 37 27 21 10 5 3 355 346 342 330 334 336 345 38 32 21 4 358
120 123 138 137 131 129 126 121 116 112 107 108 103 98 92 87 81 74 67 62 58 55 51 45 40 31 25 18 16 6 5 350 341 328 320 327 342 349 8 15 11 360 348
130 130 140 141 138 134 127 122 120 118 113 109 107 100 95 90 82 76 73 67 59 55 49 44 38 28 23 19 17 9 360 347 337 322 312 316 325 330 322 354 10 356 353
138 135 130 138 140 136 132 128 123 117 113 111 105 103 95 91 86 75 75 69 66 62 51 44 38 31 28 31 24 16 359 355 335 317 309 319 4 11 8 1 1 357 348
136 134 136 129 138 145 144 139 132 124 122 119 114 107 102 92 80 71 66 58 54 50 44 40 35 36 33 26 26 15 18 23 8 353 354 354 360 357 357 353 349 340 336
145 147 154 149 137 136 143 142 138 132 130 126 127 118 99 92 83 71 57 58 53 53 46 45 42 36 34 27 19 15 13 8 360 353 347 354 358 354 348 345 341 336 329
172 166 163 166 163 154 146 148 144 142 138 135 137 144 113 112 114 89 78 74 63 57 53 47 43 35 31 21 14 11 7 356 1 341 337 353 351 342 336 333 334 325 324
188 184 174 175 167 161 159 153 153 157 151 150 138 124 127 116 121 107 85 78 67 56 47 41 38 33 27 5 358 5 357 347 346 341 346 343 340 334 331 331 330 326 322
186 181 183 176 168 169 161 168 173 167 154 143 137 135 132 108 95 93 75 59 57 54 37 34 22 19 11 3 355 353 345 348 330 324 326 332 330 326 325 322 320 324 322
186 188 179 176 174 179 157 168 171 164 161 157 162 145 129 118 112 113 113 102 73 49 40 32 22 6 6 353 353 344 336 333 326 322 321 325 323 321 323 321 319 321 321
194 188 185 177 177 178 167 170 170 174 166 166 154 145 139 135 134 135 126 99 74 54 46 25 15 9 2 354 344 344 338 326 317 306 307 316 323 323 320 323 323 325 328
195 190 181 183 177 170 173 174 173 169 161 156 151 150 138 138 143 146 129 109 90 70 47 36 25 17 360 350 343 339 326 314 310 307 311 305 317 322 323 322 323 334 335
197 181 185 178 173 175 176 171 167 171 164 153 156 156 149 151 153 146 139 123 125 91 61 41 25 25 11 347 325 321 313 306 299 307 307 306 311 313 313 321 326 331 335
183 180 180 178 176 171 174 169 169 170 167 162 161 158 162 156 153 146 138 144 122 80 89 77 59 19 10 341 319 304 290 295 299 301 297 292 287 293 300 304 314 327 333
182 177 178 176 173 170 166 163 166 170 172 173 160 161 166 157 154 147 150 147 130 118 94 80 50 66 344 321 304 298 285 284 284 294 292 295 289 297 294 301 310 315 315
182 177 173 171 169 165 159 153 155 170 181 169 170 173 165 160 160 155 155 149 136 134 137 114 106 339 268 311 313 301 284 279 275 271 277 287 289 294 300 327 347 350 1
176 169 173 167 170 165 169 172 174 188 181 183 179 167 163 162 168 164 155 154 157 163 168 158 148 57 5 347 346 318 307 284 308 360 311 313 308 304 287 340 15 341 325
175 173 172 175 173 178 177 179 168 149 181 165 174 170 171 166 171 169 166 170 170 162 150 127 91 54 34 31 23 316 345 333 346 329 343 336 331 347 5 337 324 327 342
176 176 177 178 177 179 171 155 108 104 89 158 191 177 188 174 172 170 171 169 175 164 167 143 122 119 137 358 74 138 333 312 325 330 329 331 325 331 325 324 332 318 301
186 176 175 176 177 178 169 175 184 192 190 197 184 177 173 179 178 177 174 172 177 170 156 154 145 145 138 203 340 228 246 161 298 323 334 318 303 297 309 306 300 290 290
177 176 175 175 178 178 179 184 190 200 194 150 145 167 181 182 181 178 174 174 177 166 162 166 156 151 166 170 177 17 306 267 220 241 297 301 306 303 295 285 280 277 280
164 171 173 176 183 180 181 188 195 193 178 164 178 183 186 184 186 184 178 173 169 165 167 170 175 178 183 181 186 219 221 244 268 271 280 292 283 277 274 284 273 265 264